Time,TemperatureF,DewpointF,PressureIn,WindDirection,WindDirectionDegrees,WindSpeedMPH,WindSpeedGustMPH,Humidity,HourlyPrecipIn,Conditions,Clouds,dailyrainin,SoftwareType,DateUTC
2013-03-16 00:09:00,51.6,46.0,30.08,NW,322,0.0,0.0,81,0.00,,,-99.99,Weather View 32 v60,2013-03-16 07:09:00,
2013-03-16 00:19:00,51.4,46.4,30.08,NNW,327,0.0,0.0,83,0.00,,,-99.99,Weather View 32 v60,2013-03-16 07:19:00,
2013-03-16 00:29:00,51.3,46.9,30.08,NNW,331,0.0,0.0,85,0.00,,,-99.99,Weather View 32 v60,2013-03-16 07:29:00,
2013-03-16 00:39:00,51.1,46.7,30.08,NNW,333,0.0,0.0,85,0.00,,,-99.99,Weather View 32 v60,2013-03-16 07:39:00,
2013-03-16 00:49:00,50.7,47.0,30.08,NE,46,0.0,0.0,87,0.00,,,-99.99,Weather View 32 v60,2013-03-16 07:49:00,
2013-03-16 00:59:00,50.5,47.4,30.08,East,79,0.0,0.0,89,0.00,,,-99.99,Weather View 32 v60,2013-03-16 07:59:00,
2013-03-16 01:09:00,50.4,47.5,30.08,East,91,0.0,0.0,90,0.00,,,-99.99,Weather View 32 v60,2013-03-16 08:09:00,
2013-03-16 01:19:00,50.2,47.4,30.08,East,92,0.0,0.0,90,0.00,,,-99.99,Weather View 32 v60,2013-03-16 08:19:00,
2013-03-16 01:29:00,49.6,46.8,30.08,SSW,211,0.0,0.0,90,0.00,,,-99.99,Weather View 32 v60,2013-03-16 08:29:00,
2013-03-16 01:39:00,49.5,46.6,30.08,West,259,0.0,0.0,90,0.00,,,-99.99,Weather View 32 v60,2013-03-16 08:39:00,
2013-03-16 01:49:00,49.1,46.6,30.08,West,259,0.0,0.0,91,0.00,,,-99.99,Weather View 32 v60,2013-03-16 08:49:00,
2013-03-16 01:59:00,49.1,46.6,30.08,NW,307,0.0,0.0,91,0.00,,,-99.99,Weather View 32 v60,2013-03-16 08:59:00,
2013-03-16 02:09:00,49.3,47.3,30.08,NNW,342,0.0,0.0,93,0.00,,,-99.99,Weather View 32 v60,2013-03-16 09:09:00,
2013-03-16 02:19:00,49.3,47.6,30.08,NW,319,0.0,0.0,94,0.00,,,-99.99,Weather View 32 v60,2013-03-16 09:19:00,
2013-03-16 02:29:00,49.1,47.4,30.08,North,351,0.0,0.0,94,0.00,,,-99.99,Weather View 32 v60,2013-03-16 09:29:00,
2013-03-16 02:39:00,48.7,47.4,30.08,North,351,0.0,0.0,95,0.00,,,-99.99,Weather View 32 v60,2013-03-16 09:39:00,
2013-03-16 02:49:00,48.7,47.4,30.08,WNW,297,0.0,0.0,95,0.00,,,-99.99,Weather View 32 v60,2013-03-16 09:49:00,
2013-03-16 02:59:00,48.4,47.0,30.08,WNW,295,0.0,0.0,95,0.00,,,-99.99,Weather View 32 v60,2013-03-16 09:59:00,
2013-03-16 03:09:00,48.2,46.8,30.08,NW,310,0.0,0.0,95,0.00,,,-99.99,Weather View 32 v60,2013-03-16 10:09:00,
2013-03-16 03:19:00,48.7,47.9,30.08,North,351,0.0,6.0,97,0.00,,,-99.99,Weather View 32 v60,2013-03-16 10:19:00,
2013-03-16 03:29:00,48.7,47.9,30.08,NW,313,0.0,8.0,97,0.00,,,-99.99,Weather View 32 v60,2013-03-16 10:29:00,
2013-03-16 03:39:00,48.6,47.7,30.08,NNW,345,0.0,8.0,97,0.00,,,-99.99,Weather View 32 v60,2013-03-16 10:39:00,
2013-03-16 03:49:00,48.2,47.4,30.08,North,351,0.0,8.0,97,0.00,,,-99.99,Weather View 32 v60,2013-03-16 10:49:00,
2013-03-16 03:59:00,48.0,47.2,30.08,SSE,154,0.0,8.0,97,0.00,,,-99.99,Weather View 32 v60,2013-03-16 10:59:00,
2013-03-16 04:09:00,48.6,47.7,30.08,ENE,70,0.0,8.0,97,0.00,,,-99.99,Weather View 32 v60,2013-03-16 11:09:00,
2013-03-16 04:19:00,48.7,47.9,30.08,SE,137,0.0,8.0,97,0.00,,,-99.99,Weather View 32 v60,2013-03-16 11:19:00,
2013-03-16 04:29:00,48.9,48.1,30.08,SE,135,0.0,0.0,97,0.00,,,-99.99,Weather View 32 v60,2013-03-16 11:29:00,
2013-03-16 04:39:00,48.9,48.1,30.08,SSE,161,0.0,0.0,97,0.00,,,-99.99,Weather View 32 v60,2013-03-16 11:39:00,
2013-03-16 04:49:00,48.9,48.1,30.08,SW,230,0.0,0.0,97,0.00,,,-99.99,Weather View 32 v60,2013-03-16 11:49:00,
2013-03-16 04:59:00,48.9,48.1,30.08,SW,221,0.0,0.0,97,0.00,,,-99.99,Weather View 32 v60,2013-03-16 11:59:00,
2013-03-16 05:09:00,48.9,48.1,30.08,SW,216,0.0,0.0,97,0.00,,,-99.99,Weather View 32 v60,2013-03-16 12:09:00,
2013-03-16 05:19:00,48.9,48.1,30.08,SSW,207,0.0,0.0,97,0.00,,,-99.99,Weather View 32 v60,2013-03-16 12:19:00,
2013-03-16 05:25:00,48.9,48.1,30.08,SSW,207,0.0,0.0,97,0.00,,,-99.99,Weather View 32 v60,2013-03-16 12:25:00,
2013-03-16 05:39:00,48.7,47.9,30.08,ENE,68,0.0,0.0,97,0.00,,,-99.99,Weather View 32 v60,2013-03-16 12:39:00,
2013-03-16 05:49:00,48.7,47.9,30.08,East,99,0.0,0.0,97,0.00,,,-99.99,Weather View 32 v60,2013-03-16 12:49:00,
2013-03-16 05:59:00,48.7,47.9,30.08,SE,131,0.0,0.0,97,0.00,,,-99.99,Weather View 32 v60,2013-03-16 12:59:00,
2013-03-16 06:09:00,48.7,47.9,30.08,SW,225,0.0,0.0,97,0.00,,,-99.99,Weather View 32 v60,2013-03-16 13:09:00,
2013-03-16 06:19:00,48.4,47.6,30.08,ESE,116,0.0,0.0,97,0.00,,,-99.99,Weather View 32 v60,2013-03-16 13:19:00,
2013-03-16 06:25:00,48.4,47.6,30.08,ESE,116,0.0,0.0,97,0.00,,,-99.99,Weather View 32 v60,2013-03-16 13:25:00,
2013-03-16 06:39:00,48.2,47.4,30.08,SW,226,0.0,0.0,97,0.00,,,-99.99,Weather View 32 v60,2013-03-16 13:39:00,
2013-03-16 06:49:00,48.2,47.4,30.08,WSW,237,0.0,0.0,97,0.00,,,-99.99,Weather View 32 v60,2013-03-16 13:49:00,
2013-03-16 06:59:00,48.4,47.6,30.08,SW,232,0.0,0.0,97,0.00,,,-99.99,Weather View 32 v60,2013-03-16 13:59:00,
2013-03-16 07:09:00,48.2,47.4,30.08,SW,217,0.0,0.0,97,0.00,,,-99.99,Weather View 32 v60,2013-03-16 14:09:00,
2013-03-16 07:19:00,48.2,47.4,30.08,SW,217,0.0,0.0,97,0.00,,,-99.99,Weather View 32 v60,2013-03-16 14:19:00,
2013-03-16 07:29:00,48.0,47.2,30.08,SW,217,0.0,0.0,97,0.00,,,-99.99,Weather View 32 v60,2013-03-16 14:29:00,
2013-03-16 07:39:00,48.0,47.2,30.08,SW,217,0.0,0.0,97,0.00,,,-99.99,Weather View 32 v60,2013-03-16 14:39:00,
2013-03-16 07:49:00,48.2,47.4,30.08,SE,135,0.0,0.0,97,0.00,,,-99.99,Weather View 32 v60,2013-03-16 14:49:00,
2013-03-16 07:59:00,48.2,47.4,30.08,NE,46,0.0,0.0,97,0.00,,,-99.99,Weather View 32 v60,2013-03-16 14:59:00,
2013-03-16 08:09:00,48.6,47.7,30.08,NE,39,0.0,0.0,97,0.00,,,-99.99,Weather View 32 v60,2013-03-16 15:09:00,
2013-03-16 08:19:00,48.9,48.1,30.08,SSW,205,0.0,0.0,97,0.00,,,-99.99,Weather View 32 v60,2013-03-16 15:19:00,
2013-03-16 08:26:00,48.9,48.1,30.08,SSW,205,0.0,0.0,97,0.00,,,-99.99,Weather View 32 v60,2013-03-16 15:26:00,
2013-03-16 08:39:00,49.6,48.8,30.11,SSW,210,0.0,0.0,97,0.00,,,-99.99,Weather View 32 v60,2013-03-16 15:39:00,
2013-03-16 08:49:00,49.6,48.8,30.11,NE,56,0.0,0.0,97,0.00,,,-99.99,Weather View 32 v60,2013-03-16 15:49:00,
2013-03-16 08:59:00,50.0,49.2,30.11,ENE,72,0.0,0.0,97,0.00,,,-99.99,Weather View 32 v60,2013-03-16 15:59:00,
2013-03-16 09:09:00,50.2,48.8,30.11,ENE,75,0.0,0.0,95,0.00,,,-99.99,Weather View 32 v60,2013-03-16 16:09:00,
2013-03-16 09:19:00,50.9,48.9,30.11,NE,48,0.0,0.0,93,0.00,,,-99.99,Weather View 32 v60,2013-03-16 16:19:00,
2013-03-16 09:27:00,50.9,48.9,30.11,NE,48,0.0,0.0,93,0.00,,,-99.99,Weather View 32 v60,2013-03-16 16:27:00,
2013-03-16 09:39:00,52.3,48.6,30.11,ENE,65,0.0,0.0,87,0.00,,,-99.99,Weather View 32 v60,2013-03-16 16:39:00,
2013-03-16 09:49:00,53.2,49.2,30.11,ESE,120,0.0,0.0,86,0.00,,,-99.99,Weather View 32 v60,2013-03-16 16:49:00,
2013-03-16 09:59:00,53.8,48.7,30.11,NW,319,0.0,0.0,83,0.00,,,-99.99,Weather View 32 v60,2013-03-16 16:59:00,
2013-03-16 10:09:00,55.4,48.3,30.11,NE,52,0.0,0.0,77,0.00,,,-99.99,Weather View 32 v60,2013-03-16 17:09:00,
2013-03-16 10:19:00,56.1,47.6,30.11,NW,317,0.0,0.0,73,0.00,,,-99.99,Weather View 32 v60,2013-03-16 17:19:00,
2013-03-16 10:27:00,56.1,47.6,30.11,NW,317,0.0,0.0,73,0.00,,,-99.99,Weather View 32 v60,2013-03-16 17:27:00,
2013-03-16 10:39:00,58.6,47.3,30.11,West,270,0.0,0.0,66,0.00,,,-99.99,Weather View 32 v60,2013-03-16 17:39:00,
2013-03-16 10:49:00,59.4,46.3,30.11,NW,324,0.0,0.0,62,0.00,,,-99.99,Weather View 32 v60,2013-03-16 17:49:00,
2013-03-16 10:59:00,60.4,46.5,30.11,East,100,0.0,0.0,60,0.00,,,-99.99,Weather View 32 v60,2013-03-16 17:59:00,
2013-03-16 11:09:00,61.9,46.0,30.11,North,351,0.0,0.0,56,0.00,,,-99.99,Weather View 32 v60,2013-03-16 18:09:00,
2013-03-16 11:19:00,63.0,45.0,30.11,North,351,0.0,0.0,52,0.00,,,-99.99,Weather View 32 v60,2013-03-16 18:19:00,
2013-03-16 11:28:00,63.0,45.0,30.11,North,351,0.0,0.0,52,0.00,,,-99.99,Weather View 32 v60,2013-03-16 18:28:00,
2013-03-16 11:39:00,65.3,45.1,30.11,NNW,336,0.0,0.0,48,0.00,,,-99.99,Weather View 32 v60,2013-03-16 18:39:00,
2013-03-16 11:49:00,67.3,46.3,30.11,WNW,283,0.0,0.0,47,0.00,,,-99.99,Weather View 32 v60,2013-03-16 18:49:00,
2013-03-16 11:59:00,67.5,45.9,30.11,NW,318,0.0,0.0,46,0.00,,,-99.99,Weather View 32 v60,2013-03-16 18:59:00,
2013-03-16 12:09:00,67.6,45.5,30.11,West,263,0.0,0.0,45,0.00,,,-99.99,Weather View 32 v60,2013-03-16 19:09:00,
2013-03-16 12:19:00,67.6,46.6,30.11,NNW,331,0.0,0.0,47,0.00,,,-99.99,Weather View 32 v60,2013-03-16 19:19:00,
2013-03-16 12:28:00,67.6,46.6,30.11,NNW,331,0.0,0.0,47,0.00,,,-99.99,Weather View 32 v60,2013-03-16 19:28:00,
2013-03-16 12:39:00,70.5,45.0,30.11,WNW,293,0.0,0.0,40,0.00,,,-99.99,Weather View 32 v60,2013-03-16 19:39:00,
2013-03-16 12:49:00,71.4,44.4,30.11,NW,320,0.0,0.0,38,0.00,,,-99.99,Weather View 32 v60,2013-03-16 19:49:00,
2013-03-16 12:59:00,72.5,43.2,30.11,NNE,26,0.0,0.0,35,0.00,,,-99.99,Weather View 32 v60,2013-03-16 19:59:00,
2013-03-16 13:09:00,73.6,43.4,30.08,South,190,0.0,0.0,34,0.00,,,-99.99,Weather View 32 v60,2013-03-16 20:09:00,
2013-03-16 13:19:00,75.0,43.1,30.08,NE,37,0.0,0.0,32,0.00,,,-99.99,Weather View 32 v60,2013-03-16 20:19:00,
2013-03-16 13:29:00,75.0,43.1,30.08,NE,37,0.0,0.0,32,0.00,,,-99.99,Weather View 32 v60,2013-03-16 20:29:00,
2013-03-16 13:39:00,76.5,44.3,30.05,South,190,0.0,0.0,32,0.00,,,-99.99,Weather View 32 v60,2013-03-16 20:39:00,
2013-03-16 13:49:00,77.0,44.8,30.05,WSW,247,0.0,0.0,32,0.00,,,-99.99,Weather View 32 v60,2013-03-16 20:49:00,
2013-03-16 13:59:00,77.7,46.2,30.05,SSE,152,0.0,0.0,33,0.00,,,-99.99,Weather View 32 v60,2013-03-16 20:59:00,
2013-03-16 14:19:00,77.4,45.1,30.05,SW,236,0.0,0.0,32,0.00,,,-99.99,Weather View 32 v60,2013-03-16 21:19:00,
2013-03-16 14:29:00,78.8,44.7,30.05,WSW,240,0.0,0.0,30,0.00,,,-99.99,Weather View 32 v60,2013-03-16 21:29:00,
2013-03-16 14:39:00,79.2,45.0,30.05,SW,236,0.0,0.0,30,0.00,,,-99.99,Weather View 32 v60,2013-03-16 21:39:00,
2013-03-16 14:49:00,77.7,43.7,30.05,West,273,0.0,4.0,30,0.00,,,-99.99,Weather View 32 v60,2013-03-16 21:49:00,
2013-03-16 14:59:00,76.6,39.1,30.05,West,280,5.0,7.0,26,0.00,,,-99.99,Weather View 32 v60,2013-03-16 21:59:00,
2013-03-16 15:09:00,76.8,38.2,30.05,WSW,240,0.0,11.0,25,0.00,,,-99.99,Weather View 32 v60,2013-03-16 22:09:00,
2013-03-16 15:19:00,77.2,37.5,30.05,SSW,197,3.0,11.0,24,0.00,,,-99.99,Weather View 32 v60,2013-03-16 22:19:00,
2013-03-16 15:30:00,76.8,38.2,30.05,SW,220,7.0,11.0,25,0.00,,,-99.99,Weather View 32 v60,2013-03-16 22:30:00,
2013-03-16 15:39:00,76.3,37.8,30.05,NNW,347,0.0,11.0,25,0.00,,,-99.99,Weather View 32 v60,2013-03-16 22:39:00,
2013-03-16 15:49:00,75.7,40.2,30.05,WSW,256,0.0,11.0,28,0.00,,,-99.99,Weather View 32 v60,2013-03-16 22:49:00,
2013-03-16 15:59:00,74.8,38.5,30.05,WNW,299,5.0,11.0,27,0.00,,,-99.99,Weather View 32 v60,2013-03-16 22:59:00,
2013-03-16 16:09:00,72.7,37.6,30.05,WNW,284,0.0,11.0,28,0.00,,,-99.99,Weather View 32 v60,2013-03-16 23:09:00,
2013-03-16 16:19:00,71.6,37.6,30.05,NNW,336,0.0,11.0,29,0.00,,,-99.99,Weather View 32 v60,2013-03-16 23:19:00,
2013-03-16 16:29:00,72.5,36.5,30.05,SW,228,4.0,11.0,27,0.00,,,-99.99,Weather View 32 v60,2013-03-16 23:29:00,
2013-03-16 16:39:00,74.1,37.9,30.05,NW,316,5.0,11.0,27,0.00,,,-99.99,Weather View 32 v60,2013-03-16 23:39:00,
2013-03-16 16:49:00,74.5,36.3,30.05,SSW,208,0.0,11.0,25,0.00,,,-99.99,Weather View 32 v60,2013-03-16 23:49:00,
2013-03-16 16:59:00,74.5,36.3,30.05,SW,225,0.0,9.0,25,0.00,,,-99.99,Weather View 32 v60,2013-03-16 23:59:00,
2013-03-16 17:13:00,74.5,36.3,30.05,SW,225,0.0,9.0,25,0.00,,,-99.99,Weather View 32 v60,2013-03-17 00:13:00,
2013-03-16 17:19:00,74.7,35.4,30.05,West,265,0.0,9.0,24,0.00,,,-99.99,Weather View 32 v60,2013-03-17 00:19:00,
2013-03-16 17:29:00,73.9,36.8,30.05,WSW,243,11.0,11.0,26,0.00,,,-99.99,Weather View 32 v60,2013-03-17 00:29:00,
2013-03-16 17:39:00,72.7,37.6,30.05,SSW,210,0.0,11.0,28,0.00,,,-99.99,Weather View 32 v60,2013-03-17 00:39:00,
2013-03-16 17:49:00,71.6,37.6,30.05,West,266,5.0,11.0,29,0.00,,,-99.99,Weather View 32 v60,2013-03-17 00:49:00,
2013-03-16 18:00:00,70.3,37.4,30.05,WSW,250,4.0,11.0,30,0.00,,,-99.99,Weather View 32 v60,2013-03-17 01:00:00,
2013-03-16 18:10:00,69.3,37.3,30.02,SSW,210,5.0,11.0,31,0.00,,,-99.99,Weather View 32 v60,2013-03-17 01:10:00,
2013-03-16 18:20:00,68.4,37.3,30.02,West,266,0.0,11.0,32,0.00,,,-99.99,Weather View 32 v60,2013-03-17 01:20:00,
2013-03-16 18:30:00,67.5,36.5,30.02,WSW,242,0.0,11.0,32,0.00,,,-99.99,Weather View 32 v60,2013-03-17 01:30:00,
2013-03-16 18:40:00,66.6,36.5,30.05,South,174,0.0,11.0,33,0.00,,,-99.99,Weather View 32 v60,2013-03-17 01:40:00,
2013-03-16 18:50:00,65.5,37.8,30.05,WSW,244,0.0,11.0,36,0.00,,,-99.99,Weather View 32 v60,2013-03-17 01:50:00,
2013-03-16 19:00:00,64.2,40.0,30.05,West,261,0.0,11.0,41,0.00,,,-99.99,Weather View 32 v60,2013-03-17 02:00:00,
2013-03-16 19:10:00,63.3,41.0,30.05,WSW,247,0.0,10.0,44,0.00,,,-99.99,Weather View 32 v60,2013-03-17 02:10:00,
2013-03-16 19:20:00,62.8,41.1,30.05,West,275,0.0,10.0,45,0.00,,,-99.99,Weather View 32 v60,2013-03-17 02:20:00,
2013-03-16 19:30:00,61.9,40.8,30.05,NW,319,0.0,7.0,46,0.00,,,-99.99,Weather View 32 v60,2013-03-17 02:30:00,
2013-03-16 19:40:00,61.5,41.1,30.05,SSW,206,0.0,7.0,47,0.00,,,-99.99,Weather View 32 v60,2013-03-17 02:40:00,
2013-03-16 19:50:00,60.8,42.0,30.05,West,268,0.0,6.0,50,0.00,,,-99.99,Weather View 32 v60,2013-03-17 02:50:00,
2013-03-16 20:00:00,59.9,41.7,30.05,WSW,253,0.0,6.0,51,0.00,,,-99.99,Weather View 32 v60,2013-03-17 03:00:00,
2013-03-16 20:10:00,59.4,41.7,30.05,SSW,199,0.0,6.0,52,0.00,,,-99.99,Weather View 32 v60,2013-03-17 03:10:00,
2013-03-16 20:15:00,59.4,41.7,30.05,SSW,199,0.0,6.0,52,0.00,,,-99.99,Weather View 32 v60,2013-03-17 03:15:00,
2013-03-16 20:30:00,58.5,41.8,30.05,SE,130,0.0,0.0,54,0.00,,,-99.99,Weather View 32 v60,2013-03-17 03:30:00,
2013-03-16 20:40:00,57.7,42.1,30.08,West,271,0.0,0.0,56,0.00,,,-99.99,Weather View 32 v60,2013-03-17 03:40:00,
2013-03-16 20:50:00,57.2,42.5,30.08,SSW,201,0.0,0.0,58,0.00,,,-99.99,Weather View 32 v60,2013-03-17 03:50:00,
2013-03-16 21:10:00,56.3,43.0,30.08,South,170,0.0,0.0,61,0.00,,,-99.99,Weather View 32 v60,2013-03-17 04:10:00,
2013-03-16 21:15:00,56.3,43.0,30.08,South,170,0.0,0.0,61,0.00,,,-99.99,Weather View 32 v60,2013-03-17 04:15:00,
2013-03-16 21:20:00,55.8,43.3,30.08,SSW,197,0.0,0.0,63,0.00,,,-99.99,Weather View 32 v60,2013-03-17 04:20:00,
2013-03-16 21:30:00,55.2,43.6,30.08,SE,126,0.0,0.0,65,0.00,,,-99.99,Weather View 32 v60,2013-03-17 04:30:00,
2013-03-16 21:40:00,54.7,43.1,30.08,SW,226,0.0,0.0,65,0.00,,,-99.99,Weather View 32 v60,2013-03-17 04:40:00,
2013-03-16 21:50:00,54.1,43.0,30.08,SW,231,0.0,0.0,66,0.00,,,-99.99,Weather View 32 v60,2013-03-17 04:50:00,
2013-03-16 22:00:00,53.8,43.1,30.08,WSW,244,0.0,0.0,67,0.00,,,-99.99,Weather View 32 v60,2013-03-17 05:00:00,
2013-03-16 22:10:00,53.4,42.7,30.08,SW,234,0.0,0.0,67,0.00,,,-99.99,Weather View 32 v60,2013-03-17 05:10:00,
2013-03-16 22:20:00,53.1,42.4,30.11,SW,236,0.0,0.0,67,0.00,,,-99.99,Weather View 32 v60,2013-03-17 05:20:00,
2013-03-16 22:30:00,52.7,42.4,30.11,WSW,240,0.0,0.0,68,0.00,,,-99.99,Weather View 32 v60,2013-03-17 05:30:00,
2013-03-16 22:40:00,52.3,42.5,30.11,SSE,163,0.0,0.0,69,0.00,,,-99.99,Weather View 32 v60,2013-03-17 05:40:00,
2013-03-16 22:50:00,52.3,42.8,30.11,ESE,111,0.0,0.0,70,0.00,,,-99.99,Weather View 32 v60,2013-03-17 05:50:00,
2013-03-16 23:00:00,52.3,42.8,30.11,WNW,298,0.0,0.0,70,0.00,,,-99.99,Weather View 32 v60,2013-03-17 06:00:00,
2013-03-16 23:10:00,52.0,42.1,30.11,North,351,0.0,0.0,69,0.00,,,-99.99,Weather View 32 v60,2013-03-17 06:10:00,
2013-03-16 23:16:00,52.0,42.1,30.11,North,351,0.0,0.0,69,0.00,,,-99.99,Weather View 32 v60,2013-03-17 06:16:00,
2013-03-16 23:30:00,52.0,42.5,30.11,ENE,67,0.0,0.0,70,0.00,,,-99.99,Weather View 32 v60,2013-03-17 06:30:00,
2013-03-16 23:40:00,52.0,42.1,30.11,WNW,283,0.0,0.0,69,0.00,,,-99.99,Weather View 32 v60,2013-03-17 06:40:00,
2013-03-16 23:50:00,51.8,41.6,30.11,SSW,205,0.0,0.0,68,0.00,,,-99.99,Weather View 32 v60,2013-03-17 06:50:00,